Location: Alma
(38.7220°N, 88.9090°W)
Time: 23:33:41
(UTC-06:00)

Vanguard 2 - Pass Details

Date: 15 November 2019
Orbit: 553 x 2938 km, 32.9° (Epoch: 08 December)

Event Time Altitude Azimuth Distance (km) Brightness Sun altitude
Rises 11:36:07 0° 259° (W) 3,797 11.2 32.7°
Reaches altitude 10° 11:39:22 10° 254° (WSW) 2,521 10.5 32.7°
Maximum altitude 11:44:37 42° 184° (S) 945 10.5 32.7°
Drops below altitude 10° 11:48:32 10° 112° (ESE) 1,882 9.9 32.7°
Sets 11:50:39 0° 104° (ESE) 2,723 10.5 32.7°
